• In Netherlands
  • List of Countries
  • For 7 days
  • Water Temperature
  • Satellite Maps
  • Weather Map
  • Weather Widgets
  • user-avatar
    Login

    Hourly Weather Malanville

    Today, 29 April, Saturday

    Time Temperature Precipitation Wind Pressure Humidity
    00:00 +35°C° 0 mm 3 mps 742 mmHg 45%
    01:00 +35°C° 0.1 mm 3 mps 742 mmHg 48%
    02:00 +34°C° 0.1 mm 3 mps 742 mmHg 51%
    03:00 +32°C° 0.1 mm 2 mps 742 mmHg 54%
    04:00 +32°C° 0 mm 2 mps 742 mmHg 55%
    05:00 +31°C° 0 mm 2 mps 742 mmHg 56%
    06:00 +31°C° 0 mm 3 mps 742 mmHg 57%
    07:00 +34°C° 0 mm 3 mps 743 mmHg 51%
    08:00 +37°C° 0 mm 3 mps 743 mmHg 45%
    09:00 +40°C° 0 mm 4 mps 743 mmHg 39%
    10:00 +43°C° 0 mm 3 mps 743 mmHg 33%
    11:00 +46°C° 0 mm 2 mps 742 mmHg 26%
    12:00 +48°C° 0 mm 1 mps 742 mmHg 20%
    13:00 +47°C° 0 mm 1 mps 741 mmHg 20%
    14:00 +45°C° 0 mm 1 mps 740 mmHg 20%
    15:00 +44°C° 0 mm 1 mps 739 mmHg 20%
    16:00 +43°C° 0 mm 2 mps 739 mmHg 22%
    17:00 +41°C° 0 mm 2 mps 739 mmHg 24%
    18:00 +40°C° 0 mm 2 mps 739 mmHg 26%
    19:00 +39°C° 0 mm 2 mps 740 mmHg 29%
    20:00 +37°C° 0 mm 2 mps 740 mmHg 31%
    21:00 +35°C° 0 mm 1 mps 741 mmHg 34%
    22:00 +36°C° 0 mm 2 mps 741 mmHg 37%
    23:00 +35°C° 0 mm 3 mps 741 mmHg 39%

    Tomorrow, 30 April, Sunday

    Time Temperature Precipitation Wind Pressure Humidity
    00:00 +35°C° 0 mm 4 mps 741 mmHg 42%
    01:00 +34°C° 0 mm 4 mps 741 mmHg 47%
    02:00 +33°C° 0 mm 4 mps 741 mmHg 51%
    03:00 +33°C° 0 mm 3 mps 741 mmHg 56%
    04:00 +33°C° 0 mm 3 mps 741 mmHg 58%
    05:00 +31°C° 0 mm 3 mps 742 mmHg 61%
    06:00 +31°C° 0 mm 3 mps 742 mmHg 63%
    07:00 +34°C° 0 mm 3 mps 743 mmHg 57%
    08:00 +36°C° 0 mm 3 mps 743 mmHg 50%
    09:00 +38°C° 0 mm 4 mps 744 mmHg 44%
    10:00 +40°C° 0 mm 3 mps 743 mmHg 38%
    11:00 +43°C° 0 mm 3 mps 743 mmHg 33%
    12:00 +44°C° 0 mm 3 mps 742 mmHg 27%
    13:00 +46°C° 0 mm 2 mps 741 mmHg 24%
    14:00 +46°C° 0 mm 1 mps 740 mmHg 20%
    15:00 +47°C° 0 mm 1 mps 739 mmHg 17%
    16:00 +45°C° 0 mm 1 mps 739 mmHg 19%
    17:00 +42°C° 0 mm 1 mps 739 mmHg 22%
    18:00 +40°C° 0 mm 2 mps 739 mmHg 25%
    19:00 +39°C° 0 mm 2 mps 740 mmHg 28%
    20:00 +39°C° 0 mm 2 mps 741 mmHg 31%
    21:00 +38°C° 0 mm 3 mps 741 mmHg 34%
    22:00 +37°C° 0.1 mm 3 mps 741 mmHg 38%
    23:00 +36°C° 0.1 mm 3 mps 741 mmHg 42%

    Day after tomorrow, 1 May, Monday

    Time Temperature Precipitation Wind Pressure Humidity
    00:00 +35°C° 0.1 mm 3 mps 741 mmHg 46%
    01:00 +35°C° 0.1 mm 3 mps 741 mmHg 49%
    02:00 +34°C° 0.1 mm 3 mps 741 mmHg 52%
    03:00 +33°C° 0.1 mm 3 mps 740 mmHg 54%
    04:00 +33°C° 0 mm 3 mps 741 mmHg 55%
    05:00 +33°C° 0 mm 4 mps 741 mmHg 55%
    06:00 +33°C° 0 mm 4 mps 741 mmHg 55%
    07:00 +35°C° 0 mm 4 mps 742 mmHg 49%
    08:00 +37°C° 0 mm 4 mps 742 mmHg 43%
    09:00 +41°C° 0 mm 4 mps 742 mmHg 36%
    10:00 +43°C° 0 mm 4 mps 742 mmHg 32%
    11:00 +44°C° 0 mm 3 mps 741 mmHg 27%
    12:00 +46°C° 0 mm 2 mps 741 mmHg 22%
    13:00 +46°C° 0 mm 2 mps 740 mmHg 22%
    14:00 +44°C° 0 mm 1 mps 739 mmHg 21%
    15:00 +44°C° 0 mm 1 mps 738 mmHg 20%
    16:00 +42°C° 0.1 mm 1 mps 739 mmHg 23%
    17:00 +41°C° 0.1 mm 2 mps 739 mmHg 25%
    18:00 +40°C° 0.1 mm 2 mps 739 mmHg 27%
    19:00 +38°C° 2 mm 3 mps 740 mmHg 34%
    20:00 +36°C° 2 mm 4 mps 740 mmHg 41%
    21:00 +35°C° 2 mm 6 mps 740 mmHg 47%
    22:00 +34°C° 0.1 mm 4 mps 741 mmHg 47%
    23:00 +34°C° 0.1 mm 3 mps 741 mmHg 47%

    2 May, Tuesday

    Time Temperature Precipitation Wind Pressure Humidity
    00:00 +32°C° 0.1 mm 1 mps 741 mmHg 47%
    01:00 +32°C° 0.3 mm 2 mps 741 mmHg 50%
    02:00 +33°C° 0.3 mm 4 mps 741 mmHg 53%
    03:00 +32°C° 0.3 mm 5 mps 740 mmHg 56%
    04:00 +32°C° 0 mm 5 mps 741 mmHg 59%
    05:00 +32°C° 0 mm 5 mps 741 mmHg 62%
    06:00 +30°C° 0 mm 5 mps 741 mmHg 65%
    07:00 +33°C° 0 mm 5 mps 742 mmHg 59%
    08:00 +34°C° 0 mm 5 mps 742 mmHg 54%
    09:00 +36°C° 0 mm 6 mps 743 mmHg 48%
    10:00 +39°C° 0 mm 5 mps 742 mmHg 44%
    11:00 +40°C° 0 mm 5 mps 742 mmHg 39%
    12:00 +41°C° 0 mm 4 mps 741 mmHg 35%
    13:00 +42°C° 0 mm 4 mps 740 mmHg 33%
    14:00 +43°C° 0 mm 3 mps 739 mmHg 31%
    15:00 +43°C° 0 mm 3 mps 739 mmHg 29%
    16:00 +41°C° 0 mm 2 mps 739 mmHg 31%
    17:00 +40°C° 0 mm 2 mps 739 mmHg 34%
    18:00 +38°C° 0 mm 2 mps 739 mmHg 37%
    19:00 +38°C° 0 mm 2 mps 740 mmHg 39%
    20:00 +37°C° 0 mm 3 mps 740 mmHg 42%
    21:00 +37°C° 0 mm 3 mps 741 mmHg 44%
    22:00 +35°C° 2.1 mm 3 mps 741 mmHg 50%
    23:00 +34°C° 2.1 mm 4 mps 741 mmHg 55%

    3 May, Wednesday

    Time Temperature Precipitation Wind Pressure Humidity
    00:00 +33°C° 2.1 mm 4 mps 741 mmHg 61%
    01:00 +33°C° 0 mm 3 mps 741 mmHg 62%
    02:00 +33°C° 0 mm 3 mps 740 mmHg 63%
    03:00 +31°C° 0 mm 3 mps 740 mmHg 64%
    04:00 +31°C° 0 mm 3 mps 740 mmHg 64%
    05:00 +31°C° 0 mm 3 mps 740 mmHg 65%
    06:00 +31°C° 0 mm 3 mps 741 mmHg 65%
    07:00 +33°C° 0 mm 3 mps 741 mmHg 59%
    08:00 +35°C° 0 mm 4 mps 741 mmHg 53%
    09:00 +36°C° 0 mm 4 mps 742 mmHg 48%
    10:00 +38°C° 0 mm 4 mps 741 mmHg 43%
    11:00 +41°C° 0 mm 4 mps 741 mmHg 37%
    12:00 +43°C° 0 mm 3 mps 740 mmHg 32%
    13:00 +44°C° 0 mm 3 mps 740 mmHg 30%
    14:00 +43°C° 0 mm 2 mps 739 mmHg 28%
    15:00 +44°C° 0 mm 1 mps 738 mmHg 26%
    16:00 +42°C° 0.1 mm 2 mps 738 mmHg 29%
    17:00 +41°C° 0.1 mm 2 mps 739 mmHg 32%
    18:00 +39°C° 0.1 mm 2 mps 739 mmHg 35%
    19:00 +37°C° 1.8 mm 3 mps 740 mmHg 42%
    20:00 +36°C° 1.8 mm 3 mps 740 mmHg 48%
    21:00 +34°C° 1.8 mm 4 mps 741 mmHg 55%
    22:00 +34°C° 0.2 mm 3 mps 741 mmHg 55%
    23:00 +34°C° 0.2 mm 2 mps 741 mmHg 56%

    4 May, Thursday

    Time Temperature Precipitation Wind Pressure Humidity
    00:00 +32°C° 0.2 mm 1 mps 741 mmHg 56%
    01:00 +32°C° 0 mm 2 mps 740 mmHg 58%
    02:00 +33°C° 0 mm 3 mps 740 mmHg 59%
    03:00 +31°C° 0 mm 3 mps 740 mmHg 61%
    04:00 +31°C° 0 mm 3 mps 740 mmHg 63%
    05:00 +31°C° 0 mm 2 mps 741 mmHg 65%
    06:00 +31°C° 0 mm 2 mps 741 mmHg 66%
    07:00 +33°C° 0 mm 3 mps 741 mmHg 62%
    08:00 +34°C° 0 mm 4 mps 742 mmHg 58%
    09:00 +35°C° 0 mm 5 mps 742 mmHg 54%
    10:00 +37°C° 0 mm 5 mps 742 mmHg 48%
    11:00 +40°C° 0 mm 4 mps 741 mmHg 41%
    12:00 +42°C° 0 mm 3 mps 741 mmHg 35%
    13:00 +43°C° 0 mm 3 mps 740 mmHg 32%
    14:00 +42°C° 0 mm 2 mps 739 mmHg 29%
    15:00 +43°C° 0 mm 1 mps 738 mmHg 27%
    16:00 +42°C° 0 mm 1 mps 739 mmHg 29%
    17:00 +40°C° 0 mm 2 mps 739 mmHg 32%
    18:00 +39°C° 0 mm 2 mps 739 mmHg 35%
    19:00 +38°C° 0 mm 2 mps 739 mmHg 38%
    20:00 +37°C° 0 mm 2 mps 740 mmHg 41%
    21:00 +36°C° 0 mm 2 mps 740 mmHg 43%
    22:00 +36°C° 0.2 mm 2 mps 740 mmHg 46%
    23:00 +35°C° 0.2 mm 2 mps 740 mmHg 49%
    Show more